Change the Weather History Date:

Monday, November 25, 2013

  Actual Average Record
Temperature  
Mean Temperature 27 °F 20 °F  
Max Temperature 35 °F 29 °F 51 °F (1984)
Min Temperature 18 °F 12 °F -19 °F (1996)
Degree Days  
Heating Degree Days 38 45  
Month to date heating degree days 949 937  
Since 1 July heating degree days 1852 1968  
Cooling Degree Days 0 0  
Month to date cooling degree days 0 0  
Year to date cooling degree days 487 379  
Moisture  
Dew Point 20 °F    
Average Humidity 75    
Maximum Humidity 88    
Minimum Humidity 62    
Precipitation  
Precipitation T in 0.02 in 0.60 in (1958)
Month to date precipitation 0.15 0.84  
Year to date precipitation 18.83 20.09  
Snow  
Snow T in 0.40 in 11.30 in (1985)
Month to date snowfall 1.6 6.1  
Since 1 July snowfall 1.6 7.6  
Since 1 September snowfall 1.6 7.6  
Snow Depth 1.00 in    
Sea Level Pressure  
Sea Level Pressure 30.01 in    
Wind  
Wind Speed 16 mph (NW)    
Max Wind Speed 29 mph    
Max Gust Speed 35 mph    
Visibility 9 miles    
Events Snow    
T = Trace of Precipitation, MM = Missing Value Source: NWS Daily Summary

Daily Weather History Graph

Daily Weather History Graph

Search for Another Location

Airport or City:

Trip Planner

Search our weather history database for the weather conditions in past years. The results will help you decide how hot, cold, wet, or windy it might be!

Date:

Astronomy

Nov. 25, 2013 Rise Set
Actual Time 7:49 AM CST 4:41 PM CST
Civil Twilight 7:14 AM CST 5:16 PM CST
Nautical Twilight 6:36 AM CST 5:54 PM CST
Astronomical Twilight 5:59 AM CST 6:31 PM CST
Moon No Moon Rise 12:49 PM CST (11/25)
Length of Visible Light 10h 01m
Length of Day
8h 51m
Waning Gibbous, 51% of the Moon is Illuminated
Nov 25
Waning Gibbous
Nov 25
Last Quarter
Dec 2
New
Dec 9
First Quarter
Dec 17
Full

Hourly Weather History & Observations

Time (CST) Temp. Windchill Dew Point Humidity Pressure Visibility Wind Dir Wind Speed Gust Speed Precip Events Conditions
12:53 AM 32.0 °F 22.5 °F 25.0 °F 75% 29.79 in 10.0 mi WNW 12.7 mph - N/A   Clear
1:53 AM 28.0 °F 19.3 °F 23.0 °F 81% 29.81 in 10.0 mi WNW 9.2 mph - N/A   Clear
2:53 AM 30.9 °F 18.7 °F 25.0 °F 79% 29.82 in 10.0 mi West 19.6 mph - N/A   Mostly Cloudy
3:53 AM 32.0 °F 22.5 °F 26.1 °F 79% 29.83 in 10.0 mi WNW 12.7 mph - N/A   Overcast
4:53 AM 34.0 °F 23.4 °F 26.1 °F 73% 29.85 in 10.0 mi WNW 17.3 mph - N/A   Overcast
5:53 AM 34.0 °F 23.0 °F 26.1 °F 73% 29.87 in 10.0 mi WNW 18.4 mph - N/A   Overcast
6:53 AM 34.0 °F 24.2 °F 25.0 °F 70% 29.89 in 10.0 mi WNW 15.0 mph - N/A   Overcast
7:53 AM 33.1 °F 24.9 °F 26.1 °F 75% 29.91 in 10.0 mi West 10.4 mph - N/A   Overcast
8:53 AM 33.1 °F 22.6 °F 26.1 °F 75% 29.92 in 10.0 mi WNW 16.1 mph - N/A   Overcast
9:53 AM 34.0 °F 23.4 °F 26.1 °F 73% 29.94 in 10.0 mi West 17.3 mph - N/A   Overcast
10:53 AM 34.0 °F 23.0 °F 26.1 °F 73% 29.95 in 10.0 mi WNW 18.4 mph - N/A   Overcast
11:29 AM 28.4 °F 13.3 °F 24.8 °F 86% 29.94 in 7.0 mi North 27.6 mph 34.5 mph 0.00 in Snow Light Snow
11:53 AM 28.0 °F 13.9 °F 23.0 °F 81% 30.00 in 7.0 mi North 23.0 mph 33.4 mph 0.00 in Snow Light Snow
12:08 PM 28.4 °F 13.8 °F 23.0 °F 80% 29.97 in 7.0 mi North 25.3 mph 29.9 mph 0.00 in Snow Light Snow
12:20 PM 26.6 °F 12.0 °F 23.0 °F 86% 29.97 in 10.0 mi North 23.0 mph - 0.00 in   Overcast
12:53 PM 27.0 °F 12.2 °F 19.9 °F 75% 30.02 in 9.0 mi North 24.2 mph 31.1 mph 0.00 in   Overcast
1:16 PM 26.6 °F 13.4 °F 21.2 °F 80% 29.99 in 10.0 mi NNW 18.4 mph 28.8 mph N/A   Overcast
1:44 PM 26.6 °F 12.7 °F 19.4 °F 74% 30.00 in 10.0 mi North 20.7 mph 29.9 mph N/A   Overcast
1:53 PM 26.1 °F 14.5 °F 21.0 °F 81% 30.05 in 9.0 mi North 13.8 mph 29.9 mph N/A   Overcast
2:14 PM 26.6 °F 13.8 °F 19.4 °F 74% 30.01 in 10.0 mi North 17.3 mph - N/A   Overcast
2:29 PM 26.6 °F 14.7 °F 21.2 °F 80% 30.01 in 5.0 mi North 15.0 mph - 0.00 in Snow Light Snow
2:53 PM 26.1 °F 14.0 °F 21.0 °F 81% 30.06 in 5.0 mi NNW 15.0 mph - 0.00 in Snow Light Snow
3:53 PM 25.0 °F 15.5 °F 21.9 °F 88% 30.09 in 8.0 mi NNW 9.2 mph - 0.00 in Snow Light Snow
4:53 PM 25.0 °F 17.1 °F 21.9 °F 88% 30.10 in 7.0 mi NW 6.9 mph - 0.00 in Snow Light Snow
5:53 PM 26.1 °F 13.1 °F 17.1 °F 69% 30.11 in 10.0 mi NW 17.3 mph - 0.00 in   Overcast
6:30 PM 24.8 °F 11.9 °F 15.8 °F 69% 30.07 in 10.0 mi NW 16.1 mph 25.3 mph N/A   Overcast
6:53 PM 25.0 °F 10.9 °F 15.1 °F 66% 30.12 in 10.0 mi NW 19.6 mph 26.5 mph N/A   Overcast
7:53 PM 24.1 °F 9.4 °F 14.0 °F 65% 30.13 in 10.0 mi NW 20.7 mph 31.1 mph N/A   Overcast
8:53 PM 21.9 °F 6.2 °F 15.1 °F 75% 30.14 in 5.0 mi NW 21.9 mph 31.1 mph 0.00 in Snow Light Snow
9:53 PM 21.9 °F 6.9 °F 10.9 °F 63% 30.16 in 10.0 mi NW 19.6 mph 28.8 mph 0.00 in   Overcast
10:53 PM 21.0 °F 5.7 °F 12.0 °F 68% 30.18 in 10.0 mi NW 19.6 mph 26.5 mph N/A   Overcast
11:07 PM 19.4 °F 3.6 °F 14.0 °F 80% 30.15 in 2.5 mi NNW 19.6 mph 25.3 mph 0.00 in Snow Light Snow
11:14 PM 19.4 °F 4.1 °F 12.2 °F 74% 30.15 in 8.0 mi NNW 18.4 mph 26.5 mph 0.00 in Snow Light Snow
11:53 PM 18.0 °F 2.6 °F 8.1 °F 65% 30.21 in 10.0 mi NNW 17.3 mph 25.3 mph 0.00 in   Clear